[[{"header":{"parameterUnit":"m.s-1","parameterCategory":1,"la1":30.2991,"la2":30.254,"lo1":-89.0895,"lo2":-89.0444,"dy":0.0017,"dx":0.0017,"nx":28,"ny":28,"refTime":"2024-09-28T21:00:00:Z","depth":0,"parameterNumber":2,"parameterNumberName":"U-component_of_WINDS"},"data":[0,0,0,0,0,0,0,0,0,0,0,0,0,0,0,0,0,0,0,0,0,0,0,0,0,0,0,0,0,0,0,0,0,0,0,0,0,0,0,0,0,0,0,0,0,0,0,0,0,0,0,0,0,0,0,0,0,0,1.9961,1.9962,0,2.0049,2.005,2.0051,1.9973,1.997,1.9967,1.9964,2.006,2.0066,2.0071,0,0,0,0,0,0,0,0,0,0,0,0,0,1.9731,1.9736,1.9961,1.9962,1.9963,2.0049,2.005,2.0051,1.9974,1.997,1.9966,1.9963,2.0058,2.0065,2.0072,0,0,0,0,0,0,0,0,0,0,0,0,0,1.9827,1.9737,1.9961,1.9935,1.9933,2.0049,2.005,2.0052,1.9975,1.997,1.9965,1.9961,2.0056,2.0064,2.0072,2.022,0,0,2.0098,2.0101,0,0,0,0,0,0,0,0,1.9821,1.9835,1.9938,1.9937,1.9935,1.9995,2.0004,2.0108,1.9976,1.9959,1.9964,1.9958,2.0043,2.0052,2.0079,2.0224,2.0228,2.0099,2.0104,2.0107,2.0109,0,0,0,0,0,0,0,1.9815,1.9831,1.9996,1.9939,1.9938,1.992,1.9929,2.0024,2.0027,1.996,1.9955,1.9966,2.0041,2.0071,2.0081,2.023,2.0098,2.0106,2.0111,2.0114,2.05,2.0505,0,0,0,0,0,0,1.981,1.9826,1.9993,1.9999,1.9865,1.9929,1.9938,1.9981,2.0026,2.0028,1.997,1.9962,2.0059,2.0071,2.0084,2.0259,2.0107,2.0115,2.012,2.0495,2.0501,2.0507,0,0,0,0,0,0,1.9806,1.9826,1.999,1.9911,1.993,1.9937,1.9987,1.9985,2.0015,2.0033,2.0034,2.0,2.0056,2.0072,2.0186,2.0261,2.0119,2.0126,2.0489,2.0497,2.0504,2.0611,0,0,0,0,0,0,1.9799,1.9825,1.9879,1.9913,1.9935,2.0089,1.9991,1.999,2.0029,2.0019,2.0061,2.0063,2.0054,2.0174,2.0194,2.027,2.0133,2.0482,2.0492,2.0502,2.0601,2.0622,2.064,0,0,0,0,0,1.9791,1.9907,1.9883,1.9903,2.0003,2.0093,2.0106,2.0091,2.0035,2.0091,2.0103,2.0062,2.025,2.0186,2.0209,2.0288,2.0477,2.049,2.0501,2.0592,2.0618,2.0639,0,0,0,0,0,0,1.9885,1.9911,1.9884,2.0014,2.0052,2.008,2.015,2.0118,2.0175,2.0164,2.0144,2.0154,2.0274,2.0292,2.0221,2.0433,2.0355,2.0372,2.0417,2.0441,2.046,2.0453,2.014,0,0,0,0,0,1.992,1.999,2.001,2.0122,2.0142,2.0143,2.0182,2.0167,2.0206,2.0222,2.0242,2.0284,2.0352,2.0397,2.0461,2.0603,2.0612,2.0669,2.0688,2.0704,2.0719,2.0796,2.0822,2.0546,2.0546,2.0546,0,0,1.9995,2.0018,2.0063,2.0142,2.0169,2.0243,2.0157,2.0239,2.0294,2.0235,2.0343,2.036,2.0405,2.0533,2.0591,2.0553,2.0797,2.0719,2.0732,2.0738,2.0811,2.0837,2.086,2.0554,2.0553,2.0551,0,0,2.0169,2.0193,2.0289,2.0318,2.036,2.0359,2.0383,2.0416,2.0424,2.0531,2.0489,2.0555,2.0673,2.0707,2.0739,2.0925,2.089,2.0947,2.1048,2.1123,2.1145,2.1164,2.1231,2.1255,2.0962,2.0962,2.0962,0,2.0257,2.0364,2.0343,2.0428,2.0464,2.0412,2.051,2.054,2.0602,2.0629,2.0584,2.073,2.0757,2.0893,2.0938,2.0966,2.0993,2.0942,2.1143,2.1162,2.118,2.1243,2.1269,2.0969,2.0968,2.0967,2.0966,0,2.047,2.0546,2.0619,2.0678,2.0722,2.0813,2.0808,2.0856,2.0836,2.0841,2.0952,2.0982,2.1051,2.1082,2.1065,2.1216,2.1191,2.1145,2.1066,2.1213,2.1272,2.1297,2.0978,2.0976,2.0974,2.0972,0,0,2.0706,2.0751,2.0778,2.0804,2.0846,2.0905,2.0995,2.106,2.1102,2.1146,2.1222,2.1322,2.128,2.1317,2.1304,2.137,2.1516,2.1316,2.1316,2.1352,2.1684,2.1719,2.1747,2.1492,2.1497,2.15,2.1681,0,2.0881,2.1034,2.1018,2.1164,2.1234,2.1186,2.1264,2.1299,2.1306,2.1368,2.1377,2.1448,2.1387,2.1409,2.1472,2.1484,2.1582,2.1471,2.1564,2.1567,2.1554,2.1778,2.1815,2.1984,2.1704,2.1708,2.1711,0,2.1106,2.1156,2.1309,2.1341,2.1369,2.144,2.1498,2.1557,2.1597,2.1598,2.1639,2.1614,2.1705,2.1624,2.1751,2.1676,2.1713,2.1725,2.1731,2.174,2.1648,2.1794,2.2037,2.2063,2.1747,2.1744,2.1741,0,2.1263,2.1369,2.1474,2.1498,2.1537,2.1588,2.1607,2.1641,2.1682,2.1734,2.176,2.1823,2.1857,2.1907,2.1901,2.1842,2.203,2.1948,2.2035,2.2035,2.2077,2.2075,2.2331,2.2101,2.21,2.21,2.2099,0,2.1461,2.1557,2.1545,2.161,2.1716,2.1697,2.1803,2.1816,2.1848,2.1915,2.1878,2.1943,2.193,2.1995,2.1991,2.2097,2.2113,2.2117,2.2115,2.2121,2.212,2.2145,2.2134,2.2106,2.2105,2.2104,2.2102,0,2.1654,2.165,2.1762,2.1789,2.1798,2.1875,2.1899,2.1962,2.1965,2.2051,2.2071,2.2077,2.2152,2.215,2.2236,2.2233,2.2363,2.2347,2.2349,2.2346,2.2433,2.2425,2.2715,2.2752,2.2497,2.25,2.2502,0,2.1781,2.1853,2.1887,2.1929,2.1951,2.2019,2.2059,2.2043,2.2087,2.2137,2.2194,2.2265,2.2321,2.2443,2.2457,2.2522,2.2508,2.2605,2.2518,2.2522,2.251,2.2506,2.2514,2.2622,2.2625,2.2628,2.2629,0,2.2006,2.2,2.2058,2.2117,2.2165,2.2211,2.2253,2.229,2.2278,2.233,2.2405,2.2448,2.2534,2.2606,2.2669,2.269,2.266,2.2656,2.268,2.2687,2.2685,2.2688,2.2396,2.265,2.2648,2.2647,2.2645,2.2645,2.217,2.2232,2.2265,2.2332,2.2361,2.2401,2.246,2.2471,2.2532,2.26,2.2587,2.2671,2.271,2.2791,2.2818,2.2885,2.2851,2.2885,2.2894,2.2903,2.2913,2.2674,2.2897,2.2896,2.2895,2.2895,2.2894,0,2.2394,2.2412,2.2474,2.2532,2.2585,2.2548,2.2592,2.264,2.2713,2.2751,2.2806,2.2893,2.2962,2.298,2.3047,2.3098,2.3085,2.3116,2.3112,2.3118,2.2939,2.2912,2.3125,2.3125,2.3125,2.3125,2.3125,2.3125,2.2516,2.2619,2.2617,2.2734,2.2753,2.2833,2.2862,2.2899,2.2929,2.3026,2.3082,2.3093,2.3124,2.3193,2.3255,2.3259,2.3286,2.3323,2.3321,2.3154,2.3131,2.3109,2.3083,2.3328,2.3329,2.3494,2.3496,2.3497]},{"header":{"parameterUnit":"m.s-1","parameterCategory":1,"la1":30.2991,"la2":30.254,"lo1":-89.0895,"lo2":-89.0444,"dy":0.0017,"dx":0.0017,"nx":28,"ny":28,"refTime":"2024-09-28T21:00:00:Z","depth":0,"parameterNumber":3,"parameterNumberName":"V-component_of_WINDS"},"data":[0,0,0,0,0,0,0,0,0,0,0,0,0,0,0,0,0,0,0,0,0,0,0,0,0,0,0,0,0,0,0,0,0,0,0,0,0,0,0,0,0,0,0,0,0,0,0,0,0,0,0,0,0,0,0,0,0,0,0.1442,0.1442,0,0.144,0.144,0.144,0.1388,0.1387,0.1386,0.1384,0.1389,0.139,0.1391,0,0,0,0,0,0,0,0,0,0,0,0,0,0.1405,0.1406,0.1442,0.1442,0.1442,0.144,0.144,0.144,0.1389,0.1387,0.1385,0.1384,0.1388,0.139,0.1392,0,0,0,0,0,0,0,0,0,0,0,0,0,0.1415,0.1407,0.1442,0.1416,0.1413,0.144,0.144,0.144,0.1389,0.1387,0.1385,0.1383,0.1388,0.139,0.1392,0.1445,0,0,0.1398,0.1399,0,0,0,0,0,0,0,0,0.1414,0.1416,0.142,0.1418,0.1415,0.1412,0.1429,0.1442,0.139,0.1399,0.1384,0.1382,0.1399,0.14,0.1404,0.1446,0.1446,0.1398,0.14,0.14,0.1401,0,0,0,0,0,0,0,0.1414,0.1416,0.1442,0.142,0.1417,0.1406,0.1405,0.1431,0.141,0.1398,0.1394,0.1394,0.1397,0.1402,0.1404,0.1446,0.1398,0.14,0.1401,0.1402,0.1533,0.1535,0,0,0,0,0,0,0.1416,0.1416,0.1442,0.1442,0.1409,0.1408,0.1407,0.1415,0.141,0.1407,0.1396,0.1392,0.14,0.1401,0.1404,0.1467,0.14,0.1402,0.1404,0.153,0.1533,0.1536,0,0,0,0,0,0,0.1415,0.1419,0.1442,0.1427,0.143,0.1411,0.1421,0.1417,0.1422,0.1408,0.1405,0.1405,0.1398,0.1401,0.1435,0.1466,0.1403,0.1405,0.1528,0.1531,0.1534,0.1593,0,0,0,0,0,0,0.1414,0.1419,0.1438,0.1428,0.143,0.1472,0.1423,0.1418,0.1425,0.1419,0.1416,0.1413,0.1397,0.1432,0.1437,0.1468,0.1407,0.1525,0.1529,0.1533,0.1589,0.1598,0.1607,0,0,0,0,0,0.1413,0.1455,0.1439,0.1442,0.1454,0.1474,0.1475,0.1454,0.1427,0.1447,0.1439,0.1413,0.1462,0.1436,0.1441,0.1473,0.1523,0.1528,0.1533,0.1585,0.1597,0.1607,0,0,0,0,0,0,0.1471,0.1454,0.1435,0.1475,0.1476,0.1465,0.1489,0.1467,0.1477,0.1471,0.1446,0.1446,0.1485,0.1482,0.1454,0.1525,0.1488,0.1494,0.1526,0.1537,0.1546,0.1546,0.1408,0,0,0,0,0,0.1488,0.1504,0.1489,0.1526,0.1527,0.1508,0.1516,0.1499,0.15,0.1501,0.1495,0.1498,0.1514,0.1525,0.1539,0.1588,0.1587,0.1612,0.1621,0.1629,0.1635,0.1662,0.1673,0.1552,0.1552,0.1552,0,0,0.1524,0.1517,0.1529,0.1537,0.1536,0.1555,0.1509,0.1531,0.1545,0.1504,0.1536,0.1532,0.1534,0.1576,0.1595,0.1576,0.1668,0.1635,0.1641,0.1643,0.1668,0.168,0.169,0.1555,0.1555,0.1554,0,0,0.16,0.1595,0.1625,0.1625,0.1622,0.161,0.1617,0.1609,0.1604,0.1635,0.1605,0.1623,0.1651,0.1654,0.1659,0.1735,0.1713,0.1741,0.1788,0.1815,0.1824,0.1833,0.1861,0.1872,0.1746,0.1747,0.1747,0,0.1645,0.1671,0.1644,0.1668,0.1673,0.1635,0.1667,0.1668,0.1672,0.1677,0.1655,0.1689,0.1688,0.1731,0.1749,0.1754,0.1764,0.1741,0.1825,0.1833,0.184,0.1867,0.1878,0.175,0.175,0.1749,0.1749,0,0.1728,0.1746,0.1771,0.1773,0.1781,0.1809,0.1789,0.18,0.1783,0.1773,0.1806,0.1803,0.1816,0.1824,0.1808,0.1865,0.1854,0.1829,0.1791,0.1856,0.1881,0.1891,0.1755,0.1754,0.1753,0.1752,0,0,0.184,0.1827,0.1837,0.1838,0.1832,0.1847,0.1874,0.1884,0.1895,0.1899,0.1922,0.1946,0.1923,0.1929,0.1913,0.1936,0.1998,0.1908,0.1908,0.1926,0.2062,0.2082,0.2094,0.1982,0.1984,0.1986,0.2062,0,0.1914,0.1956,0.1934,0.1981,0.1998,0.1962,0.1986,0.1986,0.1978,0.1992,0.1984,0.2002,0.1969,0.1972,0.1993,0.1986,0.2025,0.198,0.2006,0.2007,0.2007,0.2107,0.2127,0.22,0.2072,0.2073,0.2075,0,0.2006,0.2011,0.2059,0.2051,0.2058,0.2079,0.2087,0.2101,0.2102,0.2094,0.21,0.2079,0.2106,0.2068,0.2106,0.2076,0.2085,0.2083,0.2085,0.2088,0.2045,0.2113,0.2222,0.2234,0.2089,0.2088,0.2087,0,0.2084,0.2104,0.2135,0.2137,0.2128,0.2144,0.2142,0.2139,0.2148,0.2156,0.2161,0.2173,0.218,0.219,0.2173,0.2146,0.2215,0.2174,0.2211,0.2211,0.2228,0.2227,0.2341,0.2232,0.2232,0.2232,0.2231,0,0.2169,0.2201,0.2171,0.219,0.2224,0.2198,0.2234,0.2228,0.2226,0.2245,0.2215,0.2235,0.221,0.2228,0.2215,0.2249,0.2253,0.2249,0.2245,0.2252,0.2253,0.2258,0.2253,0.2234,0.2234,0.2233,0.2233,0,0.2263,0.2244,0.2276,0.2265,0.2263,0.2289,0.2279,0.2298,0.2287,0.2312,0.2316,0.23,0.2319,0.2302,0.2321,0.2312,0.2359,0.2347,0.2358,0.2355,0.2393,0.239,0.2516,0.2531,0.2411,0.2412,0.2413,0,0.232,0.2342,0.2333,0.2342,0.2341,0.2357,0.2365,0.2341,0.235,0.2352,0.2371,0.2387,0.2398,0.243,0.2421,0.2436,0.2426,0.2468,0.2428,0.2434,0.2428,0.2427,0.243,0.2477,0.2479,0.248,0.2481,0,0.2422,0.2411,0.2422,0.243,0.244,0.2446,0.2449,0.2459,0.2435,0.2447,0.2465,0.2474,0.2492,0.2509,0.252,0.2519,0.2497,0.2493,0.2503,0.2511,0.2516,0.2515,0.2382,0.2491,0.249,0.2489,0.2489,0.2488,0.2499,0.2518,0.2514,0.2528,0.2528,0.2532,0.2549,0.2539,0.2553,0.2564,0.255,0.2572,0.2573,0.2585,0.2587,0.2606,0.2588,0.2602,0.2605,0.2609,0.2615,0.2512,0.2608,0.2608,0.2607,0.2607,0.2607,0,0.2601,0.2596,0.2609,0.2614,0.2625,0.2601,0.2603,0.2615,0.2634,0.2636,0.2647,0.2669,0.2685,0.2677,0.2691,0.2708,0.2698,0.2712,0.2712,0.2712,0.263,0.262,0.272,0.272,0.272,0.272,0.272,0.272,0.2655,0.2685,0.2674,0.2706,0.2701,0.2721,0.2725,0.273,0.2731,0.2755,0.2767,0.2761,0.276,0.2774,0.2788,0.2785,0.2793,0.2812,0.2806,0.2729,0.2718,0.2707,0.2699,0.2813,0.2813,0.2887,0.2887,0.2888]}]]